This is the latest recevied weather packets stored in our database for station/object KF0JJO. If no packets are shown the sender has not sent any weather packets the latest 10 day(s).
| Time | Temp. | Humidity | Pressure | Rain* | Wind** | Luminosity | Snow |
|---|---|---|---|---|---|---|---|
| 1776999511 | 16.67° C | 84% | 1030.8 hPa | 0 mm | - | 0 W/m² | - |
| 1776999207 | 16.67° C | 84% | 1030.6 hPa | 0 mm | - | 0 W/m² | - |
| 1776998903 | 16.67° C | 84% | 1030.7 hPa | 0 mm | - | 0 W/m² | - |
| 1776998601 | 16.67° C | 85% | 1030.2 hPa | 0 mm | - | 0 W/m² | - |
| 1776998297 | 16.67° C | 86% | 1030.3 hPa | 0 mm | - | 0 W/m² | - |
| 1776997993 | 16.67° C | 85% | 1030.2 hPa | 0 mm | - | 0 W/m² | - |
| 1776997688 | 17.22° C | 85% | 1029.5 hPa | 1.78 mm | - | 0 W/m² | - |
| 1776997384 | 17.22° C | 82% | 1029.4 hPa | 0 mm | - | 0 W/m² | - |
| 1776997080 | 17.78° C | 81% | 1029.3 hPa | 1.27 mm | - | 0 W/m² | - |
| 1776996776 | 17.78° C | 78% | 1029.1 hPa | 1.27 mm | - | 0 W/m² | - |
| 1776996472 | 18.33° C | 77% | 1028.5 hPa | 0 mm | - | 0 W/m² | - |
| 1776996169 | 18.33° C | 76% | 1028.5 hPa | 0 mm | - | 0 W/m² | - |
| 1776995867 | 18.33° C | 76% | 1028.7 hPa | 1.78 mm | - | 0 W/m² | - |
| 1776995566 | 18.33° C | 78% | 1028.7 hPa | 1.78 mm | - | 0 W/m² | - |
| 1776995261 | 18.33° C | 81% | 1028.6 hPa | 0 mm | - | 0 W/m² | - |
| 1776994959 | 18.33° C | 85% | 1028.7 hPa | 0 mm | - | 0 W/m² | - |
| 1776994659 | 18.33° C | 84% | 1028.2 hPa | 0 mm | - | 0 W/m² | - |
| 1776994355 | 18.89° C | 82% | 1028.4 hPa | 1.27 mm | - | 0 W/m² | - |
| 1776994052 | 19.44° C | 80% | 1027.8 hPa | 1.27 mm | - | 0 W/m² | - |
| 1776993749 | 19.44° C | 76% | 1028.4 hPa | 0 mm | - | 0 W/m² | - |
| 1776993446 | 20° C | 75% | 1028.3 hPa | 0 mm | - | 0 W/m² | - |
| 1776993143 | 20° C | 74% | 1028.4 hPa | 0 mm | - | 0 W/m² | - |
| 1776992840 | 20° C | 74% | 1028.3 hPa | 0 mm | - | 0 W/m² | - |
| 1776992537 | 20.56° C | 72% | 1028.3 hPa | 1.78 mm | - | 1 W/m² | - |
| 1776992234 | 20.56° C | 72% | 1027.8 hPa | 1.78 mm | - | 1 W/m² | - |
* Rain latest hour (hover to see other rain measurements)
** Current wind speed in m/s (hover to see current wind gust speed)